MST,Max TemperatureF,Mean TemperatureF,Min TemperatureF,Max Dew PointF,MeanDew PointF,Min DewpointF,Max Humidity, Mean Humidity, Min Humidity, Max Sea Level PressureIn, Mean Sea Level PressureIn, Min Sea Level PressureIn, Max VisibilityMiles, Mean VisibilityMiles, Min VisibilityMiles, Max Wind SpeedMPH, Mean Wind SpeedMPH, Max Gust SpeedMPH,PrecipitationIn, CloudCover, Events, WindDirDegrees
2012-10-1,87,74,60,32,29,27,29,19,6,30.11,30.00,29.93,10,10,10,7,2,,0.00,0,,210
2012-10-2,90,74,57,31,26,21,32,17,4,30.11,29.88,29.76,10,10,10,7,3,,0.00,0,,252
2012-10-3,91,76,61,30,24,21,28,14,4,29.88,29.83,29.77,10,10,10,14,4,26,0.00,0,,249
2012-10-4,88,76,63,31,25,16,26,15,4,29.94,29.86,29.78,10,10,10,13,4,24,0.00,0,,247
2012-10-5,84,72,60,31,27,23,31,18,5,30.05,29.87,29.80,10,10,10,14,4,24,0.00,0,,300
2012-10-6,81,71,61,31,22,10,31,15,4,30.04,29.84,29.73,10,10,10,9,4,17,0.00,0,,316
2012-10-7,73,64,55,20,11,5,21,12,4,30.13,29.91,29.84,10,10,10,8,3,,0.00,0,,30
2012-10-8,79,66,52,31,20,13,27,17,5,29.98,29.89,29.81,10,10,10,6,1,,0.00,0,,353
2012-10-9,82,68,55,35,32,29,40,24,9,29.95,29.87,29.81,10,10,10,9,3,,0.00,0,,63
2012-10-10,82,70,57,37,34,28,44,26,8,29.96,29.86,29.78,10,10,10,8,3,,0.00,0,,134
2012-10-11,71,63,55,47,39,34,58,37,20,30.04,29.85,29.77,10,10,10,13,4,20,0.01,3,Rain,227
2012-10-12,64,56,48,54,45,39,94,73,43,30.07,29.95,29.81,10,8,1,20,6,30,0.12,6,Rain-Thunderstorm,181
2012-10-13,68,58,48,48,45,41,80,61,39,30.22,30.09,30.04,10,10,10,8,3,,0.01,3,Rain,133
2012-10-14,70,60,51,46,41,36,74,49,18,30.26,30.16,30.11,10,10,10,5,2,,0.00,0,,339
2012-10-15,73,60,48,44,40,38,61,46,20,30.22,30.02,29.91,10,10,10,5,2,,0.00,0,,244
2012-10-16,78,64,51,42,38,34,64,36,15,29.93,29.81,29.67,10,10,10,8,2,,0.00,0,,355
2012-10-17,73,66,59,40,23,3,44,21,4,29.99,29.89,29.78,10,10,10,9,5,17,0.00,0,,293
2012-10-18,72,61,50,25,13,3,31,16,4,30.16,30.06,30.00,10,10,10,6,2,,0.00,0,,37
2012-10-19,75,62,48,25,21,18,35,22,5,30.08,29.96,29.85,10,10,10,8,3,,0.00,0,,278
2012-10-20,79,64,48,27,24,21,41,23,6,29.86,29.76,29.65,10,10,10,7,1,,0.00,0,,294
2012-10-21,79,65,51,41,34,25,47,29,12,29.78,29.71,29.63,10,10,10,12,4,21,0.00,1,,197
2012-10-22,75,65,55,44,38,33,57,35,13,29.86,29.72,29.65,10,10,10,15,7,23,0.00,0,,203
2012-10-23,73,64,54,41,30,19,57,28,6,29.84,29.70,29.62,10,10,10,13,8,21,0.00,0,,192
2012-10-24,70,59,48,34,25,12,45,29,6,29.98,29.78,29.67,10,10,10,15,5,32,0.00,0,,285
2012-10-25,63,51,39,24,18,10,49,28,7,30.22,30.07,29.99,10,10,10,13,4,21,0.00,0,,329
2012-10-26,54,45,36,19,14,8,48,27,7,30.35,30.25,30.16,10,10,7,8,4,,0.00,0,,357
2012-10-27,60,48,36,18,14,10,43,26,6,30.21,30.14,30.07,10,10,8,6,1,,0.00,0,,354
2012-10-28,64,52,41,22,16,13,35,23,6,30.17,30.10,30.02,10,10,9,6,1,,0.00,0,,324
2012-10-29,69,56,43,25,20,16,36,24,9,30.20,30.12,30.05,10,10,10,6,3,,0.00,0,,309
2012-10-30,71,58,45,28,24,20,42,28,9,30.17,30.09,30.01,10,10,10,5,1,,0.00,0,,350
2012-10-31,70,58,46,29,24,21,40,27,9,30.14,30.04,29.96,10,10,7,5,2,,0.00,0,,271